1307491227456,18.1705
1307491287456,18.1963
1307491347456,18.1851
1307491407456,18.1277
1307491467456,18.1740
1307491527456,18.1072
1307491587456,18.1631
1307491647456,18.1688
1307491707456,18.1574
1307491767456,18.1589
1307491827456,18.1388
1307491887456,18.1355
1307491947456,18.1788
1307492007456,18.1698
1307492067456,18.1774
1307492127456,18.1505
1307492187456,18.1614
1307492247456,18.1663
1307492307456,18.2170
1307492367456,18.1861
1307492427456,18.2136
1307492487456,18.1475
1307492547456,18.1767
1307492607456,18.1926
1307492667456,18.1539
1307492727456,18.1418
1307492787456,18.1710
1307492847456,18.1732
1307492907456,18.2081
1307492967456,18.1753
1307493027456,18.1294
1307493087456,18.1590
1307493147456,18.2170
1307493207456,18.1436
1307493267456,18.1611
1307493327456,18.1709
1307493387456,18.1636
1307493447456,18.1620
1307493507456,18.1520
1307493567456,18.1627
1307493627456,18.1340
1307493687456,18.1451
1307493747456,18.1805
1307493807456,18.1333
1307493867456,18.1679
1307493927456,18.2325
1307493987456,18.2133
1307494047456,18.2036
1307494107456,18.2192
1307494167456,18.1544
1307494227456,18.2439
1307494287456,18.1416
1307494347456,18.2307
1307494407456,18.1791
1307494467456,18.1810
1307494527456,18.1904
1307494587456,18.2221
1307494647456,18.1502
1307494707456,18.1722
1307494767456,18.2401
1307494827466,18.2193
1307494887466,18.1607
1307494947466,18.1899
1307495007466,18.2385
1307495067466,18.1743
1307495127466,18.2124
1307495187466,18.1928
1307495247466,18.1789
1307495307466,18.1590
1307495367466,18.1431
1307495427466,18.1966
1307495487466,18.1652
1307495547466,18.1890
1307495607466,18.1779
1307495667466,18.2175
1307495727466,18.1727
1307495787466,18.1831
1307495847466,18.1885
1307495907466,18.1963
1307495967466,18.1974
1307496027466,18.2013
1307496087466,18.2284
1307496147466,18.2564
1307496207466,18.2222
1307496267466,18.2905
1307496327466,18.2247
1307496387466,18.2387
1307496447466,18.2486
1307496507466,18.1985
1307496567466,18.2169
1307496627466,18.2336
1307496687466,18.2002
1307496747466,18.2422
1307496807466,18.2177
1307496867466,18.1815
1307496927466,18.2461
1307496987466,18.2282
1307497047466,18.2193
1307497107466,18.1450
1307497167466,18.2479
1307497227466,18.2496
1307497287466,18.2871
1307497347466,18.2303
1307497407466,18.2772
1307497467466,18.2468
1307497527466,18.2487
1307497587466,18.2158
1307497647466,18.1873
1307497707466,18.2027
1307497767466,18.2243
1307497827466,18.1916
1307497887466,18.2025
1307497947466,18.1953
1307498007466,18.2283
1307498067466,18.2025
1307498127466,18.2417
1307498187466,18.2038
1307498247466,18.2012
1307498307466,18.2084
1307498367466,18.1669
1307498427476,18.1807
1307498487476,18.1731
1307498547476,18.1963
1307498607476,18.1650
1307498667476,18.1774
1307498727476,18.1711
1307498787476,18.1644
1307498847476,18.1991
1307498907476,18.1502
1307498967476,18.1449
1307499027476,18.1478
1307499087476,18.1658
1307499147476,18.1904
1307499207476,18.1024
1307499267476,18.1248
1307499327476,18.1604
1307499387476,18.1278
1307499447476,18.1727
1307499507476,18.1152
1307499567476,18.1396
1307499627476,18.1620
1307499687476,18.1253
1307499747476,18.1517
1307499807476,18.1413
1307499867476,18.1604
1307499927476,18.1366
1307499987476,18.1056
1307500047476,18.1895
1307500107476,18.1155
1307500167476,18.1129
1307500227476,18.1450
1307500287476,18.0981
1307500347476,18.1289
1307500407476,20.0466
1307500467476,18.1655
1307500527476,18.1378
1307500587476,18.1229
1307500647476,18.1679
1307500707476,18.1052
1307500767476,18.1266
1307500827476,18.1386
1307500887476,18.1821
1307500947476,18.1356
1307501007476,18.2262
1307501067476,18.1451
1307501127476,18.1850
1307501187476,18.1286
1307501247476,18.1768
1307501307476,18.1399
1307501367476,18.1850
1307501427476,18.1686
1307501487476,18.2044
1307501547476,18.1985
1307501607476,18.1488
1307501667476,18.0601
1307501727476,18.1280
1307501787476,18.1312
1307501847476,18.1802
1307501907476,18.1461
1307501967476,18.1304
1307502027486,18.0820
1307502087486,18.0656
1307502147486,18.1113
1307502207486,18.1212
1307502267486,18.1482
1307502327486,18.1150
1307502387486,18.1626
1307502447486,18.1049
1307502507486,18.1626
1307502567486,18.1367
1307502627486,18.1467
1307502687486,18.1707
1307502747486,18.1008
1307502807486,18.0821
1307502867486,18.1211
1307502927486,18.1484
1307502987486,18.1580
1307503047486,18.1983
1307503107486,18.1816
1307503167486,18.1288
1307503227486,18.1223
1307503287486,18.1369
1307503347486,18.1720
1307503407486,18.1713
1307503467486,18.1905
1307503527486,18.1761
1307503587486,18.1548
1307503647486,18.1470
1307503707486,18.1736
1307503767486,18.0961
1307503827486,18.1595
1307503887486,18.1571
1307503947486,18.1207
1307504007486,18.1471
1307504067486,18.1555
1307504127486,18.0936
1307504187486,18.1396
1307504247486,18.1776
1307504307486,18.1498
1307504367486,18.1747
1307504427486,18.1877
1307504487486,18.1599
1307504547486,18.1097
1307504607486,18.1483
1307504667486,18.1679
1307504727486,18.1591
1307504787486,18.1296
1307504847486,18.2147
1307504907486,18.1306
1307504967486,18.1696
1307505027486,18.0957
1307505087486,18.1148
1307505147486,18.1521
1307505207486,18.1347
1307505267486,18.0861
1307505327486,18.1213
1307505387486,18.1462
1307505447486,18.1442
1307505507486,18.1458
1307505567486,18.1273
1307505627495,18.0982
1307505687495,18.1571
1307505747495,18.1417
1307505807495,18.1206
1307505867495,18.1608
1307505927495,18.1395
1307505987495,18.1707
1307506047495,18.1152
1307506107496,18.1498
1307506167496,18.1329
1307506227495,18.1376
1307506287495,18.1474
1307506347495,18.1599
1307506407496,18.1529
1307506467496,18.1384
1307506527496,18.1279
1307506587496,18.1252
1307506647496,18.1464
1307506707496,18.1218
1307506767496,18.1333
1307506827496,18.0973
1307506887496,18.0835
1307506947495,18.0830
1307507007495,18.1230
1307507067495,18.1052
1307507127495,18.1147
1307507187495,18.1082
1307507247495,18.1050
1307507307495,18.0936
1307507367495,18.1271
1307507427496,18.0677
1307507487496,18.1020
1307507547496,18.1140
1307507607495,18.1398
1307507667495,18.0793
1307507727495,18.0715
1307507787496,18.0891
1307507847496,18.0490
1307507907496,18.1268
1307507967496,18.0808
1307508027496,18.0438
1307508087496,18.0835
1307508147496,18.0937
1307508207496,18.0449
1307508267495,18.0510
1307508327495,18.0537
1307508387495,18.1180
1307508447495,18.0742
1307508507495,18.0544
1307508567495,18.0255
1307508627495,18.0482
1307508687495,18.0816
1307508747495,18.1102
1307508807496,18.1141
1307508867496,18.0097
1307508927495,18.1037
1307508987495,18.1052
1307509047495,18.0659
1307509107496,18.0885
1307509167496,18.0240
1307509227505,18.0257
1307509287505,18.0898
1307509347505,18.0591
1307509407505,18.0229
1307509467505,18.0673
1307509527505,18.0657
1307509587505,18.0524
1307509647505,18.0126
1307509707505,18.0055
1307509767505,18.0544
1307509827505,18.0330
1307509887505,18.0407
1307509947505,18.0530
1307510007505,18.0545
1307510067505,18.0538
1307510127505,18.0156
1307510187505,18.0572
1307510247505,18.0383
1307510307505,18.0136
1307510367505,18.0073
1307510427505,18.0371
1307510487505,18.0280
1307510547505,18.0487
1307510607505,18.0467
1307510667505,18.0301
1307510727505,18.0451
1307510787505,18.0532
1307510847505,18.0157
1307510907505,18.0204
1307510967505,18.0332
1307511027505,18.0672
1307511087505,18.0100
1307511147505,18.0153
1307511207505,18.0443
1307511267505,18.0562
1307511327505,18.0960
1307511387505,18.0044
1307511447505,18.0473
1307511507505,18.0696
1307511567505,18.0523
1307511627505,18.0498
1307511687505,18.0372
1307511747505,18.0790
1307511807505,18.0389
1307511867505,18.0693
1307511927505,18.1056
1307511987505,18.1220
1307512047505,18.0464
1307512107505,18.1012
1307512167505,18.1045
1307512227505,18.1036
1307512287505,18.1658
1307512347505,18.0763
1307512407505,18.1209
1307512467505,18.0979
1307512527505,18.1508
1307512587505,18.1271
1307512647505,18.1630
1307512707505,18.0982
1307512767505,18.1470
1307512827514,18.1197
1307512887514,18.1300
1307512947514,18.1149
1307513007514,18.1441
1307513067514,18.0858
1307513127514,18.0922
1307513187514,18.0651
1307513247514,18.1551
1307513307514,18.1181
1307513367514,18.1388
1307513427514,18.1868
1307513487514,18.1584
1307513547514,18.1310
1307513607514,18.1333
1307513667514,18.1285
1307513727514,18.1224
1307513787514,18.1038
1307513847514,18.0987
1307513907514,18.0715
1307513967514,18.1425
1307514027514,18.0846
1307514087514,18.0871
1307514147514,18.0765
1307514207514,18.0901
1307514267514,18.1145
1307514327514,18.0853
1307514387514,18.0438
1307514447514,18.1004
1307514507514,18.1082
1307514567514,18.0464
1307514627514,18.0802
1307514687514,18.0751
1307514747514,18.0761
1307514807514,18.0722
1307514867514,18.0268
1307514927514,18.0387
1307514987514,18.0471
1307515047514,18.0396
1307515107514,18.0556
1307515167514,18.0518
1307515227514,18.0909
1307515287514,18.0694
1307515347514,18.0614
1307515407514,18.0672
1307515467514,18.0437
1307515527514,18.0847
1307515587514,18.0485
1307515647514,18.0714
1307515707514,18.0600
1307515767514,18.0112
1307515827514,18.0929
1307515887514,18.0263
1307515947514,18.0892
1307516007514,18.0409
1307516067514,18.0335
1307516127514,18.0545
1307516187514,18.0442
1307516247514,18.0325
1307516307514,18.0347
1307516367514,18.0794
1307516427523,18.0339
1307516487523,18.0880
1307516547523,18.0368
1307516607523,18.0075
1307516667523,18.0293
1307516727523,18.0241
1307516787523,18.0593
1307516847523,18.0301
1307516907523,18.0537
1307516967523,18.0722
1307517027523,18.0422
1307517087523,18.0467
1307517147523,18.0475
1307517207523,18.0697
1307517267523,18.0492
1307517327523,18.0147
1307517387523,18.0641
1307517447523,18.0427
1307517507523,18.0343
1307517567523,18.0383
1307517627523,18.0264
1307517687523,18.0507
1307517747523,18.0526
1307517807523,18.0206
1307517867523,18.0239
1307517927523,18.0435
1307517987523,18.0297
1307518047523,18.0003
1307518107523,18.0071
1307518167523,18.0033
1307518227523,18.0629
1307518287523,18.0932
1307518347523,18.1032
1307518407523,18.0543
1307518467523,18.0570
1307518527523,18.1080
1307518587523,18.0723
1307518647523,18.0805
1307518707523,18.1013
1307518767523,18.0905
1307518827523,18.0525
1307518887523,18.0853
1307518947523,18.0358
1307519007523,18.0811
1307519067523,18.0735
1307519127523,18.1260
1307519187523,18.0296
1307519247523,18.0284
1307519307523,18.1146
1307519367523,18.0540
1307519427523,18.0503
1307519487523,18.0193
1307519547523,18.0498
1307519607523,18.0279
1307519667523,18.0133
1307519727523,18.0169
1307519787523,18.0103
1307519847523,18.0298
1307519907523,18.0422
1307519967523,18.0325
1307520027532,18.0976
1307520087532,18.0317
1307520147532,17.9907
1307520207532,18.0542
1307520267532,18.0179
1307520327532,18.0041
1307520387532,18.0544
1307520447532,18.0124
1307520507532,17.9508
1307520567532,17.9980
1307520627532,17.9764
1307520687532,17.9753
1307520747532,18.0028
1307520807532,17.9430
1307520867532,17.9983
1307520927532,17.9831
1307520987532,17.9692
1307521047532,18.0239
1307521107532,17.9631
1307521167532,17.9568
1307521227532,17.9459
1307521287532,17.9731
1307521347532,17.9581
1307521407532,18.0099
1307521467532,18.0084
1307521527532,17.9766
1307521587532,17.9857
1307521647532,18.0831
1307521707532,17.9944
1307521767532,17.9939
1307521827532,17.9580
1307521887532,17.9842
1307521947532,17.9552
1307522007532,17.9628
1307522067532,17.9680
1307522127532,18.0051
1307522187532,18.0279
1307522247532,17.9785
1307522307532,17.9795
1307522367532,18.0296
1307522427532,17.9590
1307522487532,17.9631
1307522547532,17.9634
1307522607532,17.9948
1307522667532,17.9542
1307522727532,17.9097
1307522787532,17.9538
1307522847532,17.9755
1307522907532,17.9332
1307522967532,17.9714
1307523027532,17.9959
1307523087532,17.9463
1307523147532,17.9625
1307523207532,17.9523
1307523267532,17.9665
1307523327532,17.9490
1307523387532,17.9583
1307523447532,17.9783
1307523507532,17.9390
1307523567532,17.9847
1307523627541,17.9675
1307523687541,17.9350
1307523747541,17.9352
1307523807541,17.9007
1307523867541,17.9340
1307523927541,17.9291
1307523987541,17.8938
1307524047541,17.9158
1307524107541,17.9651
1307524167541,17.8832
1307524227541,17.9126
1307524287541,17.9222
1307524347541,17.9141
1307524407541,17.9054
1307524467541,17.9473
1307524527541,17.9683
1307524587541,17.9831
1307524647541,17.9333
1307524707541,17.9411
1307524767541,17.9239
1307524827541,17.9468
1307524887541,17.8947
1307524947541,17.9282
1307525007541,17.8960
1307525067541,17.9414
1307525127541,17.8936
1307525187541,17.8878
1307525247541,17.9146
1307525307541,17.9218
1307525367541,17.9340
1307525427541,17.9699
1307525487541,17.9217
1307525547541,17.9538
1307525607541,17.9737
1307525667541,17.9108
1307525727541,17.9235
1307525787541,17.8987
1307525847541,17.9130
1307525907541,17.9324
1307525967541,17.8916
1307526027541,17.9601
1307526087541,17.9361
1307526147541,17.9899
1307526207541,17.9576
1307526267541,17.9505
1307526327541,17.9263
1307526387541,18.0151
1307526447541,17.9089
1307526507541,17.9366
1307526567541,17.9782
1307526627541,18.0097
1307526687541,17.9367
1307526747541,17.9306
1307526807541,17.9200
1307526867541,17.9612
1307526927541,17.9456
1307526987541,17.9172
1307527047541,17.9332
1307527107541,17.9313
1307527167541,17.8807
1307527227550,17.9309
1307527287550,17.8923
1307527347550,17.9556
1307527407550,17.9285
1307527467550,17.9559
1307527527550,17.9461
1307527587550,17.9281
1307527647550,17.9034
1307527707550,17.8560
1307527767550,17.9036
1307527827550,17.9192
1307527887550,17.9022
1307527947550,17.9002
1307528007550,17.9038
1307528067550,17.9266
1307528127550,17.8539
1307528187550,17.9017
1307528247550,17.8741
1307528307550,17.9087
1307528367550,17.9161
1307528427550,17.9010
1307528487550,17.9142
1307528547550,17.8873
1307528607550,17.9304
1307528667550,17.9244
1307528727550,17.8733
1307528787550,17.8724
1307528847550,17.8538
1307528907550,17.8938
1307528967550,17.8791
1307529027550,17.9237
1307529087550,17.8936
1307529147550,17.9161
1307529207550,17.8569
1307529267550,17.9271
1307529327550,17.9017
1307529387550,17.8703
1307529447550,17.8962
1307529507550,17.9127
1307529567550,17.9077
1307529627550,17.9227
1307529687550,17.8804
1307529747550,17.8637
1307529807550,17.9143
1307529867550,17.8891
1307529927550,17.9089
1307529987550,17.9246
1307530047550,17.9250
1307530107550,17.9367
1307530167550,17.9256
1307530227550,17.8883
1307530287550,17.8813
1307530347550,17.8991
1307530407550,17.9005
1307530467550,17.8978
1307530527550,17.9141
1307530587550,17.8717
1307530647550,17.8567
1307530707550,17.9180
1307530767550,17.8934
1307530827559,17.9658
1307530887559,17.9429
1307530947559,17.8749
1307531007559,17.8966
1307531067559,17.8666
1307531127559,17.8960
1307531187559,17.8307
1307531247559,17.8946
1307531307559,17.8437
1307531367559,17.8950
1307531427559,17.8812
1307531487559,17.8376
1307531547559,17.9009
1307531607559,17.9258
1307531667559,17.8892
1307531727559,17.9160
1307531787559,17.9444
1307531847559,17.8782
1307531907559,17.8949
1307531967559,17.8748
1307532027559,17.8610
1307532087559,17.8947
1307532147559,17.9042
1307532207559,17.9034
1307532267559,17.9270
1307532327559,17.8965
1307532387559,17.9312
1307532447559,17.9229
1307532507559,17.9080
1307532567559,17.9252
1307532627559,17.9343
1307532687559,17.9212
1307532747559,17.9303
1307532807559,17.9219
1307532867559,17.9079
1307532927559,17.9192
1307532987559,17.9120
1307533047559,17.9207
1307533107559,17.9580
1307533167559,17.9017
1307533227559,17.8541
1307533287559,17.9189
1307533347559,17.9022
1307533407559,17.9293
1307533467559,17.9099
1307533527559,17.8977
1307533587559,17.9068
1307533647559,17.9087
1307533707559,17.8995
1307533767559,17.8822
1307533827559,17.8917
1307533887559,17.9195
1307533947559,17.8867
1307534007559,17.8917
1307534067559,17.9168
1307534127559,17.8848
1307534187559,17.8856
1307534247559,17.9058
1307534307559,17.8952
1307534367559,17.8932
1307534427568,17.8487
1307534487568,17.8817
1307534547568,17.8508
1307534607568,17.8151
1307534667568,17.9204
1307534727568,17.8600
1307534787568,17.9157
1307534847568,17.9186
1307534907568,17.8405
1307534967568,17.8769
1307535027568,17.8820
1307535087568,17.9146
1307535147568,17.8736
1307535207568,17.9288
1307535267568,17.8809
1307535327568,17.8864
1307535387568,17.8882
1307535447568,17.8826
1307535507568,17.9021
1307535567568,17.9229
1307535627568,17.8763
1307535687568,17.9070
1307535747568,17.9534
1307535807568,17.9601
1307535867568,17.9378
1307535927568,17.9227
1307535987568,17.9134
1307536047568,17.9210
1307536107568,17.8811
1307536167568,17.8978
1307536227568,17.9275
1307536287568,17.8571
1307536347568,17.8673
1307536407568,17.9487
1307536467568,17.9415
1307536527568,17.9367
1307536587568,17.9028
1307536647568,17.9164
1307536707568,17.9214
1307536767568,17.9899
1307536827568,17.8704
1307536887568,17.9035
1307536947568,17.9089
1307537007568,17.9040
1307537067568,17.8790
1307537127568,17.8924
1307537187568,17.9012
1307537247568,18.0162
1307537307568,17.9331
1307537367568,17.8716
1307537427568,17.9091
1307537487568,17.9633
1307537547568,17.9195
1307537607568,17.9162
1307537667568,17.9033
1307537727568,17.9087
1307537787568,17.9578
1307537847568,17.9318
1307537907568,17.8937
1307537967568,17.9143
1307538027577,17.9210
1307538087577,17.9130
1307538147577,17.9081
1307538207577,17.8775
1307538267578,17.8649
1307538327578,17.8935
1307538387578,17.8598
1307538447578,17.9282
1307538507578,17.8905
1307538567578,17.9020
1307538627578,17.8849
1307538687578,17.9215
1307538747578,17.9487
1307538807578,17.9009
1307538867578,17.8691
1307538927578,17.8662
1307538987578,17.8594
1307539047578,17.8855
1307539107578,17.8505
1307539167578,17.9191
1307539227577,17.8928
1307539287577,17.8273
1307539347577,17.9071
1307539407577,17.8689
1307539467577,17.8881
1307539527577,17.8730
1307539587578,17.9029
1307539647578,17.9053
1307539707578,17.8833
1307539767578,17.9244
1307539827578,17.8857
1307539887578,17.8785
1307539947578,17.8498
1307540007578,17.8225
1307540067578,17.8598
1307540127578,17.8649
1307540187578,17.8471
1307540247578,17.8422
1307540307578,17.8594
1307540367578,17.8137
1307540427578,17.8343
1307540487578,17.8571
1307540547578,17.8665
1307540607577,17.8412
1307540667577,17.8180
1307540727577,17.8349
1307540787577,17.8617
1307540847577,17.8284
1307540907577,17.8308
1307540967578,17.8669
1307541027578,17.9087
1307541087578,17.8679
1307541147578,17.8955
1307541207578,17.8893
1307541267578,17.8715
1307541327578,17.8496
1307541387578,17.8592
1307541447578,17.9107
1307541507578,17.8894
1307541567578,17.8961
1307541627587,17.8912
1307541687587,17.8425
1307541747587,17.8354
1307541807587,17.8466
1307541867587,17.8828
1307541927587,17.8211
1307541987587,17.8614
1307542047587,17.9007
1307542107587,17.8718
1307542167587,17.9127
1307542227587,17.8849
1307542287587,17.8792
1307542347587,17.8703
1307542407587,17.8672
1307542467587,17.8339
1307542527587,17.8379
1307542587587,17.8667
1307542647587,17.8927
1307542707587,17.8779
1307542767587,17.9258
1307542827587,17.8325
1307542887587,17.8789
1307542947587,17.8552
1307543007587,17.8247
1307543067587,17.8453
1307543127587,17.8526
1307543187587,17.8422
1307543247587,17.8917
1307543307587,17.8686
1307543367587,17.8675
1307543427587,17.8564
1307543487587,17.8521
1307543547587,17.8508
1307543607587,17.8845
1307543667587,17.8952
1307543727587,17.8908
1307543787587,17.8641
1307543847587,17.8581
1307543907587,17.8399
1307543967587,17.9040
1307544027587,17.9355
1307544087587,17.8660
1307544147587,17.8623
1307544207587,17.8661
1307544267587,17.8641
1307544327587,17.8687
1307544387587,17.8766
1307544447587,17.8585
1307544507587,17.8832
1307544567587,17.8624
1307544627587,17.8840
1307544687587,17.8094
1307544747587,17.8470
1307544807587,17.8089
1307544867587,17.8506
1307544927587,17.8472
1307544987587,17.8255
1307545047587,17.8522
1307545107587,17.8372
1307545167587,17.8426
1307545227596,17.8654
1307545287596,17.8439
1307545347596,17.8772
1307545407596,17.8776
1307545467596,17.8630
1307545527596,17.8391
1307545587596,17.8494
1307545647596,17.8948
1307545707596,17.8473
1307545767596,17.8965
1307545827596,17.8900
1307545887596,17.8787
1307545947596,17.8313
1307546007596,17.8886
1307546067596,17.9130
1307546127596,17.8673
1307546187596,17.9113
1307546247596,17.9282
1307546307596,17.8960
1307546367596,17.9091
1307546427596,17.9342
1307546487596,17.9000
1307546547596,17.9352
1307546607596,17.9145
1307546667596,17.8802
1307546727596,17.9455
1307546787596,17.9110
1307546847596,17.8817
1307546907596,17.9092
1307546967596,17.8969
1307547027596,17.9195
1307547087596,17.8954
1307547147596,17.8827
1307547207596,17.8895
1307547267596,17.9222
1307547327596,17.9267
1307547387596,17.8756
1307547447596,17.9191
1307547507596,17.9250
1307547567596,17.8703
1307547627596,17.9300
1307547687596,17.8583
1307547747596,17.8335
1307547807596,17.8788
1307547867596,17.8852
1307547927596,17.9111
1307547987596,17.9100
1307548047596,17.8845
1307548107596,17.8730
1307548167596,17.9122
1307548227596,17.9257
1307548287596,17.9010
1307548347596,17.9090
1307548407596,17.9290
1307548467596,17.9329
1307548527596,17.8005
1307548587596,17.8766
1307548647596,17.9370
1307548707596,17.9003
1307548767596,17.8609
1307548827605,17.8747
1307548887605,17.8726
1307548947605,17.8631
1307549007605,17.8801
1307549067605,17.9158
1307549127605,17.8944
1307549187605,17.8441
1307549247605,17.8926
1307549307605,17.9221
1307549367605,17.8698
1307549427605,17.8678
1307549487605,17.8537
1307549547605,17.8497
1307549607605,17.9187
1307549667605,18.0180
1307549727605,17.8627
1307549787605,17.8591
1307549847605,17.9014
1307549907605,17.9413
1307549967605,17.9023
1307550027605,17.9124
1307550087605,17.9139
1307550147605,17.8811
1307550207605,17.8582
1307550267605,17.8619
1307550327605,17.9020
1307550387605,17.8341
1307550447605,17.8194
1307550507605,17.9179
1307550567605,17.8932
1307550627605,17.8876
1307550687605,17.9266
1307550747605,17.9398
1307550807605,17.9297
1307550867605,17.8768
1307550927605,17.8914
1307550987605,17.9263
1307551047605,17.8984
1307551107605,17.9029
1307551167605,17.9519
1307551227605,17.9519
1307551287605,17.9619
1307551347605,17.9848
1307551407605,17.9528
1307551467605,18.0169
1307551527605,17.9825
1307551587605,17.9878
1307551647605,18.0057
1307551707605,17.9523
1307551767605,17.9571
1307551827605,17.9501
1307551887605,17.9382
1307551947605,17.9608
1307552007605,17.8905
1307552067605,17.9257
1307552127605,17.9402
1307552187605,17.8899
1307552247605,17.8806
1307552307605,17.8603
1307552367605,17.9178
1307552427614,17.8472
1307552487614,17.8575
1307552547614,17.8923
1307552607614,18.0473
1307552667614,17.8494
1307552727614,17.8412
1307552787614,17.8611
1307552847614,17.8841
1307552907614,17.8468
1307552967614,17.8730
1307553027614,17.8726
1307553087614,17.9028
1307553627614,17.8615
1307553687614,17.8471
1307553747614,17.8696
1307553807614,17.9243
1307553867614,17.8337
1307553927614,17.8587
1307553987614,17.9209
1307554047614,17.8671
1307554107614,17.8767
1307554167614,17.8721
1307554227614,17.8049
1307554287614,17.8181
1307554347614,17.8704
1307554407614,17.8398
1307554467614,17.8681
1307554527614,17.8838
1307554587614,17.8309
1307554647614,17.8351
1307554707614,17.8178
1307554767614,17.8907
1307554827614,17.8719
1307554887614,17.8563
1307554947614,17.9283
1307555007614,17.8853
1307555067614,17.8259
1307555127614,17.8671
1307555187614,17.8804
1307555247614,17.8675
1307555307614,17.8536
1307555367614,17.8594
1307555427614,17.8679
1307555487614,17.8839
1307555547614,17.8865
1307555607614,17.9107
1307555667614,17.8692
1307555727614,17.8770
1307555787614,17.8997
1307555847614,17.8644
1307555907614,17.8435
1307555967614,17.8650
1307556027624,17.8346
1307556087624,17.8587
1307556147624,17.8320
1307556207624,17.8112
1307556267624,17.8386
1307556327624,17.8486
1307556387624,17.7972
1307556447624,17.8718
1307556507624,17.8820
1307556567624,17.8633
1307556627624,17.8836
1307556687624,17.8168
1307556747624,17.8170
1307556807624,17.7991
1307556867624,17.8272
1307556927624,17.8412
1307556987624,17.8095
1307557047624,17.8271